FW9643 Weather Reports


time (UTC)temp
C
wind
direction
speed
KPH
gust
KPH
rain 1hr
cm
rain 24hr
cm
rain mn
cm
humidity
%
barometer
mb
20260505124926 -17 56 0.0 0.0 0.00 0.23 0.23 1016.2
20260505124424 -17 56 0.0 3.2 0.00 0.23 0.23 1015.9
20260505123920 -17 56 0.0 0.0 0.00 0.23 0.23 1016.0
20260505123416 -17 57 1.6 3.2 0.00 0.23 0.23 1015.9
20260505122912 -17 57 1.6 1.6 0.00 0.23 0.23 1015.9
20260505122410 -17 57 0.0 0.0 0.00 0.23 0.23 1015.9
20260505121906 -17 57 0.0 0.0 0.00 0.23 0.23 1015.8
20260505121403 -17 57 0.0 1.6 0.18 0.23 0.23 1015.9
20260505120859 -17 57 1.6 1.6 0.18 0.23 0.23 1015.8
20260505120356 -17 57 1.6 4.8 0.00 0.20 0.20 1015.6
20260505115854 -17 56 3.2 8.0 0.00 0.20 0.20 1015.6
20260505115352 -17 56 0.0 0.0 0.00 0.20 0.20 1015.5
20260505114849 -17 56 1.6 3.2 0.13 0.20 0.20 1015.5
20260505114345 -17 56 1.6 1.6 0.30 0.20 0.20 1015.5
20260505113842 -17 56 1.6 1.6 0.18 0.18 0.18 1015.6
20260505113339 -17 56 3.2 4.8 0.18 0.15 0.15 1015.3
20260505112834 -17 56 0.0 1.6 0.18 0.15 0.15 1015.3
20260505112332 -17 56 1.6 1.6 0.00 0.13 0.13 1015.3
20260505111827 -17 56 0.0 0.0 0.00 0.13 0.13 1015.0
20260505111323 -17 57 0.0 0.0 0.00 0.13 0.13 1015.1
20260505110819 -17 57 3.2 3.2 0.00 0.13 0.13 1015.0
20260505110317 -17 60 1.6 1.6 0.00 0.13 0.13 1015.3
20260505101751 -17 51 0.0 0.0 0.00 0.13 0.13 1014.3
20260505101247 -17 50 0.0 0.0 0.00 0.13 0.13 1014.5
20260505100743 -17 46 0.0 0.0 0.00 0.13 0.13 1014.3
20260505100240 -17 54 0.0 1.6 0.00 0.13 0.13 1014.3
20260505095735 -17 49 0.0 0.0 0.00 0.13 0.13 1014.2
20260505095234 -17 47 0.0 0.0 0.00 0.13 0.13 1014.7
20260505094729 -17 47 0.0 0.0 0.00 0.13 0.13 1014.5
20260505094226 -17 48 1.6 1.6 0.00 0.13 0.13 1014.1
20260505093722 -17 26 14.5 20.9 0.00 0.13 0.13 1013.4
20260505093220 -17 35 11.3 14.5 0.00 0.13 0.13 1013.3
20260505092716 -17 42 3.2 4.8 0.00 0.13 0.13 1014.1
20260505092215 -17 48 0.0 1.6 0.00 0.13 0.13 1014.4
20260505091712 -17 44 3.2 3.2 0.00 0.13 0.13 1014.2
20260505091210 -17 51 1.6 1.6 0.00 0.13 0.13 1014.2
20260505090707 -17 34 4.8 4.8 0.00 0.13 0.13 1014.4
20260505090205 -17 48 0.0 0.0 0.00 0.13 0.13 1014.1
20260505085703 -17 58 0.0 1.6 0.00 0.13 0.13 1014.1
20260505085201 -17 67 1.6 3.2 0.00 0.13 0.13 1014.3
20260505084658 -17 70 1.6 3.2 0.00 0.13 0.13 1014.1
20260505084156 -17 77 1.6 1.6 0.00 0.13 0.13 1014.1
20260505083653 -17 120 4.8 4.8 0.00 0.13 0.13 1014.1
20260505083150 -17 55 0.0 0.0 0.00 0.13 0.13 1014.2
20260505082645 -17 51 1.6 1.6 0.00 0.13 0.13 1014.2
20260505082143 -17 45 1.6 1.6 0.00 0.13 0.13 1014.3
20260505081639 -17 49 0.0 0.0 0.00 0.13 0.13 1014.7
20260505081137 -17 50 0.0 0.0 0.00 0.13 0.13 1015.0
20260505080633 -17 45 1.6 3.2 0.00 0.13 0.13 1014.8
20260505080129 -17 111 4.8 8.0 0.00 0.13 0.13 1014.7
20260505075625 -17 48 3.2 4.8 0.00 0.13 0.13 1014.5
20260505075122 -17 172 3.2 8.0 0.00 0.13 0.13 1014.8
20260505074619 -17 143 3.2 4.8 0.00 0.13 0.13 1014.8
20260505074116 -17 121 4.8 8.0 0.00 0.13 0.13 1014.9
20260505073614 -17 45 1.6 1.6 0.13 0.13 0.13 1015.4
20260505073112 -17 47 1.6 1.6 0.13 0.13 0.13 1015.3
20260505072607 -17 84 1.6 3.2 0.00 0.10 0.10 1015.4
20260505072104 -17 43 3.2 3.2 0.00 0.10 0.10 1015.4
20260505071559 -17 115 3.2 3.2 0.00 0.10 0.10 1015.8
20260505071058 -17 129 11.3 12.9 0.18 0.10 0.10 1015.5
20260505070554 -17 154 9.7 11.3 0.30 0.10 0.10 1015.5
20260505070050 -17 52 3.2 3.2 0.13 0.08 0.08 1016.0
20260505065546 -17 66 0.0 1.6 0.30 0.08 0.08 1016.0
20260505065044 -17 72 3.2 3.2 0.18 0.05 0.05 1016.1
20260505064540 -17 47 0.0 0.0 0.13 0.03 0.03 1016.1
20260505064039 -17 50 0.0 0.0 0.13 0.03 0.03 1015.9
20260505063536 -17 47 0.0 0.0 0.00 0.00 0.00 1016.0
20260505063031 -17 47 0.0 0.0 0.00 0.00 0.00 1016.0
20260505062528 -17 47 0.0 0.0 0.00 0.00 0.00 1015.9
20260505062026 -17 47 0.0 0.0 0.00 0.00 0.00 1016.0
20260505061523 -17 49 0.0 0.0 0.00 0.00 0.00 1016.0
20260505061021 -17 51 0.0 0.0 0.00 0.00 0.00 1016.1
20260505060518 -17 57 0.0 1.6 0.00 0.00 0.00 1015.8
20260505060015 -17 48 0.0 0.0 0.00 0.23 0.23 1015.9
20260505055510 -17 51 1.6 1.6 0.00 0.23 0.23 1015.9
20260505055007 -17 83 1.6 3.2 0.00 0.23 0.23 1016.0
20260505054504 -17 51 0.0 1.6 0.00 0.23 0.23 1016.0
20260505054002 -17 63 1.6 3.2 0.00 0.23 0.23 1016.0
20260505053459 -17 47 0.0 0.0 0.18 0.23 0.23 1015.5
20260505052955 -17 45 0.0 0.0 0.30 0.23 0.23 1015.8
20260505052453 -17 35 4.8 4.8 0.30 0.20 0.20 1016.0
20260505051950 -17 47 0.0 1.6 0.30 0.20 0.20 1016.2
20260505051447 -17 46 0.0 0.0 0.00 0.15 0.15 1016.1
20260505050945 -17 48 0.0 0.0 0.13 0.15 0.15 1016.2
20260505050443 -17 58 1.6 1.6 0.13 0.15 0.15 1016.2
20260505041411 -17 49 0.0 0.0 0.13 0.10 0.10 1016.1
20260505040908 -17 43 0.0 1.6 0.00 0.08 0.08 1016.1
20260505040405 -17 34 6.4 8.0 0.18 0.08 0.08 1016.0
20260505035902 -17 45 0.0 0.0 0.18 0.08 0.08 1015.6
20260505035357 -17 44 0.0 1.6 0.18 0.05 0.05 1015.5
20260505034855 -17 54 0.0 0.0 0.18 0.05 0.05 1015.8
20260505034351 -17 49 0.0 0.0 0.00 0.03 0.03 1015.9
20260505033849 -17 52 1.6 1.6 0.00 0.03 0.03 1015.9
20260505033345 -17 48 0.0 0.0 0.00 0.03 0.03 1015.9
20260505032844 -17 48 0.0 0.0 0.00 0.03 0.03 1016.0
20260505032340 -17 52 0.0 0.0 0.13 0.03 0.03 1015.6
20260505031837 -17 49 0.0 0.0 0.13 0.03 0.03 1015.8
20260505031333 -17 50 0.0 0.0 0.00 0.00 0.00 1015.5
20260505030831 -17 61 1.6 1.6 0.00 0.00 0.00 1015.8
20260505030327 -17 63 0.0 1.6 0.00 0.00 0.00 1015.6
20260505025822 -17 60 3.2 3.2 0.00 0.00 0.00 1015.6
20260505025320 -17 49 0.0 0.0 0.00 0.00 0.00 1015.1
20260505024818 -17 64 1.6 3.2 0.00 0.00 0.00 1015.4
20260505024316 -17 52 1.6 1.6 0.00 0.00 0.00 1015.3
20260505023813 -17 50 0.0 0.0 0.00 0.00 0.00 1015.0
20260505023309 -17 47 0.0 0.0 0.00 0.00 0.00 1015.0
20260505022807 -17 49 0.0 0.0 0.00 0.00 0.00 1015.0
20260505022304 -17 52 0.0 0.0 0.00 0.00 0.00 1014.8
20260505021801 -17 59 3.2 3.2 0.00 0.00 0.00 1015.0
20260505021258 -17 54 0.0 0.0 0.00 0.00 0.00 1015.0
20260505020753 -17 54 0.0 0.0 0.00 0.00 0.00 1014.9
20260505020248 -17 48 0.0 0.0 0.00 0.00 0.00 1015.0
20260505015746 -17 48 0.0 0.0 0.00 0.00 0.00 1014.9
20260505015243 -17 50 0.0 0.0 0.00 0.00 0.00 1015.0
20260505014740 -17 47 0.0 0.0 0.00 0.00 0.00 1014.7
20260505014238 -17 37 0.0 0.0 0.00 0.00 0.00 1014.5
20260505013734 -17 54 0.0 1.6 0.00 0.00 0.00 1014.4
20260505013231 -17 48 0.0 0.0 0.00 0.00 0.00 1014.5
20260505012729 -17 42 0.0 0.0 0.00 0.00 0.00 1014.7
20260505012226 -17 21 1.6 1.6 0.00 0.00 0.00 1014.8
20260505011722 -17 6 3.2 4.8 0.00 0.00 0.00 1014.7
20260505011219 -17 55 3.2 4.8 0.00 0.00 0.00 1014.9
20260505010715 -17 78 1.6 1.6 0.00 0.00 0.00 1014.3
20260505010212 -17 62 3.2 4.8 0.00 0.00 0.00 1014.3
20260505005708 -17 52 1.6 1.6 0.00 0.00 0.00 1014.3
20260505005205 -17 43 0.0 1.6 0.00 0.00 0.00 1014.1
20260505004702 -17 54 0.0 0.0 0.00 0.00 0.00 1014.1
20260505004159 -17 42 0.0 0.0 0.00 0.00 0.00 1013.9
20260505003656 -17 47 0.0 0.0 0.00 0.00 0.00 1014.1
20260505003153 -17 47 0.0 0.0 0.00 0.00 0.00 1013.9
20260505002649 -17 47 1.6 1.6 0.00 0.00 0.00 1013.9
20260505002148 -17 63 3.2 3.2 0.00 0.00 0.00 1014.2
20260505001644 -17 86 1.6 3.2 0.00 0.00 0.00 1014.3
20260505001142 -17 66 0.0 0.0 0.00 0.00 0.00 1014.1
20260505000638 -17 77 1.6 3.2 0.00 0.00 0.00 1014.3
20260505000137 -17 71 4.8 4.8 0.00 0.00 0.00 1013.9
20260504235633 -17 73 3.2 3.2 0.00 0.00 0.00 1013.8
20260504235129 -17 76 1.6 3.2 0.00 0.00 0.00 1014.2
20260504234626 -17 43 12.9 17.7 0.00 0.00 0.00 1014.1
20260504234124 -17 45 3.2 3.2 0.00 0.00 0.00 1013.9
20260504233619 -17 45 0.0 0.0 0.00 0.00 0.00 1013.9
20260504233115 -17 42 1.6 1.6 0.00 0.00 0.00 1013.4
20260504232614 -17 219 4.8 8.0 0.00 0.00 0.00 1013.3
20260504232110 -17 31 6.4 9.7 0.00 0.00 0.00 1013.2
20260504231607 -17 16 19.3 22.5 0.00 0.00 0.00 1013.3
20260504231103 -17 18 14.5 24.1 0.00 0.00 0.00 1013.0
20260504230559 -17 11 19.3 24.1 0.00 0.00 0.00 1013.0
20260504230058 -17 15 17.7 22.5 0.00 0.00 0.00 1012.5
20260504225555 -17 35 1.6 3.2 0.00 0.00 0.00 1012.4
20260504225052 -17 51 3.2 3.2 0.00 0.00 0.00 1012.1
20260504224549 -17 57 8.0 11.3 0.00 0.00 0.00 1011.9
20260504224046 -17 27 12.9 14.5 0.00 0.00 0.00 1012.2
20260504223543 -17 69 1.6 1.6 0.00 0.00 0.00 1012.0
20260504223038 -17 28 4.8 8.0 0.00 0.00 0.00 1011.7
20260504222536 -17 24 9.7 11.3 0.00 0.00 0.00 1011.9
20260504222033 -17 29 1.6 3.2 0.00 0.00 0.00 1012.0
20260504221530 -17 47 0.0 0.0 0.00 0.00 0.00 1011.9
20260504221027 -17 15 14.5 16.1 0.00 0.00 0.00 1011.9
20260504220524 -17 25 6.4 9.7 0.00 0.00 0.00 1012.0
20260504220021 -17 11 3.2 8.0 0.00 0.00 0.00 1011.7
20260504215517 -17 15 3.2 3.2 0.00 0.00 0.00 1011.9
20260504215015 -17 64 3.2 3.2 0.00 0.00 0.00 1012.0
20260504214510 -17 56 3.2 4.8 0.00 0.00 0.00 1012.1
20260504214007 -17 57 1.6 3.2 0.00 0.00 0.00 1012.1
20260504213503 -17 37 3.2 4.8 0.00 0.00 0.00 1012.1
20260504213001 -17 95 1.6 3.2 0.00 0.00 0.00 1012.2
20260504212456 -17 104 1.6 1.6 0.00 0.00 0.00 1012.4
20260504211954 -17 57 0.0 0.0 0.00 0.00 0.00 1012.4
20260504211450 -17 72 3.2 3.2 0.00 0.00 0.00 1012.2
20260504210948 -17 170 3.2 3.2 0.00 0.00 0.00 1012.2
20260504210444 -17 350 8.0 9.7 0.00 0.00 0.00 1012.5
20260504205941 -17 28 11.3 14.5 0.00 0.00 0.00 1012.5
20260504205439 -17 76 4.8 4.8 0.00 0.00 0.00 1012.4
20260504204937 -17 50 8.0 11.3 0.00 0.00 0.00 1012.7
20260504204435 -17 39 6.4 12.9 0.00 0.00 0.00 1012.7
20260504203934 -17 17 11.3 14.5 0.00 0.00 0.00 1012.6
20260504203431 -17 19 12.9 14.5 0.00 0.00 0.00 1012.5
20260504202927 -17 75 3.2 4.8 0.00 0.00 0.00 1012.5
20260504202424 -17 28 11.3 12.9 0.00 0.00 0.00 1012.6
20260504201920 -17 6 14.5 22.5 0.00 0.00 0.00 1012.5
20260504201418 -17 27 11.3 14.5 0.00 0.00 0.00 1012.4
20260504200915 -17 19 16.1 20.9 0.00 0.00 0.00 1012.5
20260504200412 -17 350 4.8 8.0 0.00 0.00 0.00 1012.7
20260504195909 -17 15 17.7 22.5 0.00 0.00 0.00 1012.8
20260504195404 -17 226 3.2 3.2 0.00 0.00 0.00 1012.8
20260504194901 -17 20 8.0 11.3 0.00 0.00 0.00 1012.7
20260504194357 -17 93 0.0 0.0 0.00 0.00 0.00 1012.7
20260504193853 -17 90 3.2 4.8 0.00 0.00 0.00 1013.0
20260504193350 -17 336 4.8 9.7 0.00 0.00 0.00 1012.7
20260504192849 -17 20 1.6 1.6 0.00 0.00 0.00 1012.8
20260504192347 -17 29 8.0 16.1 0.00 0.00 0.00 1012.6
20260504191845 -17 41 4.8 8.0 0.00 0.00 0.00 1012.8
20260504191343 -17 59 3.2 3.2 0.00 0.00 0.00 1012.4
20260504190838 -17 43 1.6 1.6 0.00 0.00 0.00 1012.5
20260504190334 -17 41 4.8 8.0 0.00 0.00 0.00 1012.5
20260504185831 -17 44 1.6 3.2 0.00 0.00 0.00 1012.5
20260504185328 -17 42 3.2 3.2 0.00 0.00 0.00 1012.6
20260504184824 -17 61 0.0 0.0 0.00 0.00 0.00 1012.6
20260504184320 -17 48 0.0 0.0 0.00 0.00 0.00 1012.6
20260504183815 -17 103 1.6 3.2 0.00 0.00 0.00 1012.7
20260504183313 -17 106 3.2 3.2 0.00 0.00 0.00 1013.2
20260504182811 -17 82 4.8 8.0 0.00 0.00 0.00 1013.1
20260504182308 -17 32 4.8 8.0 0.00 0.00 0.00 1013.3
20260504181805 -17 80 4.8 4.8 0.00 0.00 0.00 1013.2
20260504181302 -17 148 3.2 3.2 0.00 0.00 0.00 1013.3
20260504180801 -17 115 3.2 3.2 0.00 0.00 0.00 1013.4
20260504180259 -17 44 1.6 3.2 0.00 0.00 0.00 1013.2
20260504175757 -17 60 3.2 4.8 0.00 0.00 0.00 1013.0
20260504175253 -17 49 0.0 0.0 0.00 0.00 0.00 1013.3
20260504174751 -17 44 3.2 3.2 0.00 0.00 0.00 1013.6
20260504174249 -17 85 3.2 4.8 0.00 0.00 0.00 1013.4
20260504173745 -17 46 3.2 3.2 0.00 0.00 0.00 1013.7
20260504173242 -17 48 1.6 1.6 0.00 0.00 0.00 1013.7
20260504172739 -17 62 1.6 1.6 0.00 0.00 0.00 1013.9
20260504172236 -17 45 1.6 1.6 0.00 0.00 0.00 1013.8
20260504171732 -17 31 0.0 1.6 0.00 0.00 0.00 1014.1
20260504171229 -17 53 0.0 1.6 0.00 0.00 0.00 1013.7
20260504170726 -17 39 0.0 1.6 0.00 0.00 0.00 1013.9
20260504170223 -17 56 0.0 1.6 0.00 0.00 0.00 1014.3
20260504160142 -17 81 1.6 3.2 0.00 0.00 0.00 1014.5
20260504151109 -17 67 1.6 1.6 0.00 0.00 0.00 1014.8
20260504150607 -17 82 3.2 4.8 0.00 0.00 0.00 1014.8
20260504150104 -17 50 0.0 0.0 0.00 0.00 0.00 1015.3
20260504141032 -17 50 0.0 1.6 0.00 0.00 0.00 1014.9
20260504140529 -17 48 3.2 3.2 0.00 0.00 0.00 1014.8
20260504130453 -17 55 0.0 0.0 0.00 0.00 0.00 1014.8